[[{"header":{"parameterUnit":"m.s-1","parameterCategory":1,"la1":30.2991,"la2":30.254,"lo1":-89.0895,"lo2":-89.0444,"dy":0.0017,"dx":0.0017,"nx":28,"ny":28,"refTime":"2024-10-14T09:00:00:Z","depth":0,"parameterNumber":2,"parameterNumberName":"U-component_of_WINDS"},"data":[0,0,0,0,0,0,0,0,0,0,0,0,0,0,0,0,0,0,0,0,0,0,0,0,0,0,0,0,0,0,0,0,0,0,0,0,0,0,0,0,0,0,0,0,0,0,0,0,0,0,0,0,0,0,0,0,0,0,-0.5532,-0.5533,0,-0.5617,-0.5618,-0.5619,-0.565,-0.5649,-0.5649,-0.5649,-0.5736,-0.5739,-0.5741,0,0,0,0,0,0,0,0,0,0,0,0,0,-0.5396,-0.5399,-0.5532,-0.5533,-0.5534,-0.5616,-0.5618,-0.5619,-0.565,-0.5649,-0.5649,-0.5649,-0.5735,-0.5738,-0.5741,0,0,0,0,0,0,0,0,0,0,0,0,0,-0.5466,-0.54,-0.5532,-0.5559,-0.5563,-0.5616,-0.5618,-0.5619,-0.565,-0.5649,-0.5649,-0.5649,-0.5734,-0.5738,-0.5742,-0.5774,0,0,-0.5754,-0.5755,0,0,0,0,0,0,0,0,-0.5462,-0.5471,-0.5554,-0.5558,-0.5561,-0.5622,-0.5602,-0.5671,-0.565,-0.5617,-0.5649,-0.5648,-0.5699,-0.5705,-0.5722,-0.5778,-0.5782,-0.5754,-0.5756,-0.5758,-0.5759,0,0,0,0,0,0,0,-0.5457,-0.5467,-0.5565,-0.5555,-0.556,-0.5567,-0.5577,-0.5615,-0.5659,-0.562,-0.5622,-0.5632,-0.57,-0.5718,-0.5724,-0.5783,-0.5754,-0.5757,-0.576,-0.5761,-0.5869,-0.5869,0,0,0,0,0,0,-0.5447,-0.5463,-0.5563,-0.5568,-0.5509,-0.557,-0.5581,-0.5603,-0.5659,-0.5667,-0.5632,-0.5633,-0.5712,-0.572,-0.5728,-0.5769,-0.5758,-0.5762,-0.5764,-0.5868,-0.5869,-0.587,0,0,0,0,0,0,-0.5444,-0.5456,-0.5559,-0.5516,-0.553,-0.5573,-0.5598,-0.5605,-0.5623,-0.5668,-0.5676,-0.5642,-0.5712,-0.5722,-0.5762,-0.5772,-0.5763,-0.5767,-0.5868,-0.5869,-0.5869,-0.5851,0,0,0,0,0,0,-0.544,-0.5455,-0.5468,-0.5516,-0.5532,-0.5592,-0.5599,-0.5607,-0.563,-0.5631,-0.568,-0.5687,-0.5712,-0.5756,-0.5766,-0.5777,-0.577,-0.5867,-0.5868,-0.5869,-0.5851,-0.5851,-0.5851,0,0,0,0,0,-0.5435,-0.546,-0.5468,-0.548,-0.5549,-0.5593,-0.5602,-0.563,-0.563,-0.5643,-0.5672,-0.5686,-0.5769,-0.576,-0.5771,-0.5784,-0.5867,-0.5868,-0.5869,-0.5851,-0.5851,-0.5851,0,0,0,0,0,0,-0.5412,-0.5466,-0.5477,-0.5517,-0.555,-0.5598,-0.5616,-0.563,-0.5664,-0.5664,-0.5698,-0.5708,-0.5745,-0.5769,-0.5757,-0.5818,-0.5819,-0.5822,-0.5801,-0.5802,-0.5802,-0.5796,-0.5773,0,0,0,0,0,-0.5411,-0.5442,-0.5488,-0.5519,-0.5535,-0.5573,-0.5593,-0.5612,-0.5647,-0.5661,-0.5693,-0.5727,-0.5761,-0.5782,-0.5816,-0.5854,-0.5865,-0.5868,-0.5868,-0.5868,-0.5871,-0.5892,-0.5894,-0.5874,-0.5874,-0.5874,0,0,-0.541,-0.5444,-0.5462,-0.5516,-0.5543,-0.5574,-0.5584,-0.5617,-0.5641,-0.5666,-0.5706,-0.573,-0.577,-0.5809,-0.5828,-0.583,-0.5879,-0.587,-0.5869,-0.5873,-0.5894,-0.5896,-0.5897,-0.5874,-0.5874,-0.5874,0,0,-0.5425,-0.5454,-0.5482,-0.551,-0.5551,-0.5576,-0.5582,-0.5628,-0.5645,-0.5685,-0.5705,-0.5733,-0.5791,-0.5818,-0.584,-0.5863,-0.5877,-0.5873,-0.5874,-0.5894,-0.5896,-0.5897,-0.5905,-0.5908,-0.5876,-0.5875,-0.5875,0,-0.5419,-0.5467,-0.5496,-0.5527,-0.555,-0.5574,-0.5603,-0.5628,-0.5679,-0.5694,-0.5695,-0.5767,-0.5796,-0.5841,-0.5847,-0.5863,-0.5872,-0.5868,-0.5893,-0.5895,-0.5897,-0.5905,-0.5908,-0.5875,-0.5875,-0.5875,-0.5875,0,-0.5457,-0.549,-0.5508,-0.5556,-0.558,-0.5611,-0.5644,-0.5665,-0.5681,-0.5705,-0.5745,-0.578,-0.5821,-0.5833,-0.5849,-0.588,-0.588,-0.5887,-0.5889,-0.5898,-0.5906,-0.5909,-0.5874,-0.5874,-0.5874,-0.5874,0,0,-0.546,-0.5522,-0.5529,-0.555,-0.5597,-0.5623,-0.5654,-0.5693,-0.5711,-0.5744,-0.5771,-0.5818,-0.5824,-0.5849,-0.5868,-0.5886,-0.5901,-0.589,-0.5892,-0.5891,-0.5937,-0.5932,-0.5935,-0.591,-0.5911,-0.5911,-0.5933,0,-0.5481,-0.5537,-0.5564,-0.5608,-0.5638,-0.5661,-0.5688,-0.5719,-0.5742,-0.5771,-0.5796,-0.5829,-0.5835,-0.5849,-0.5868,-0.5895,-0.5911,-0.5894,-0.5935,-0.5936,-0.5925,-0.5939,-0.5934,-0.5953,-0.5937,-0.5937,-0.5938,0,-0.5513,-0.5546,-0.5594,-0.5636,-0.565,-0.5673,-0.5711,-0.5738,-0.5774,-0.5789,-0.5816,-0.5834,-0.5867,-0.5866,-0.5911,-0.5899,-0.5917,-0.5933,-0.5934,-0.594,-0.5938,-0.5945,-0.596,-0.5963,-0.5943,-0.5943,-0.5942,0,-0.5511,-0.5567,-0.5602,-0.562,-0.567,-0.5686,-0.5708,-0.5743,-0.5765,-0.5798,-0.5812,-0.5848,-0.5868,-0.5895,-0.5923,-0.5919,-0.5965,-0.5967,-0.5979,-0.5978,-0.5988,-0.5987,-0.6006,-0.5999,-0.5999,-0.5999,-0.5999,0,-0.5531,-0.556,-0.5602,-0.5623,-0.5655,-0.5685,-0.5715,-0.5739,-0.5769,-0.5796,-0.5817,-0.5842,-0.5876,-0.5905,-0.5926,-0.596,-0.5969,-0.5982,-0.5988,-0.5981,-0.5979,-0.5993,-0.5993,-0.6,-0.5999,-0.5999,-0.5999,0,-0.5534,-0.5564,-0.5604,-0.5648,-0.5659,-0.5681,-0.5718,-0.574,-0.5763,-0.5796,-0.5806,-0.5842,-0.5877,-0.5907,-0.5952,-0.5967,-0.6002,-0.6008,-0.599,-0.5993,-0.6003,-0.6001,-0.6032,-0.6038,-0.6026,-0.6026,-0.6027,0,-0.5546,-0.5568,-0.5614,-0.5633,-0.5654,-0.5685,-0.5706,-0.5736,-0.5758,-0.5799,-0.5816,-0.5852,-0.5882,-0.5936,-0.5967,-0.6001,-0.6009,-0.6017,-0.6015,-0.6006,-0.6009,-0.6007,-0.601,-0.6018,-0.6018,-0.6018,-0.6018,0,-0.5563,-0.5576,-0.5607,-0.5642,-0.5668,-0.5697,-0.5727,-0.5742,-0.5776,-0.58,-0.5835,-0.5858,-0.5905,-0.594,-0.5978,-0.6,-0.6014,-0.6018,-0.6023,-0.6016,-0.6004,-0.601,-0.599,-0.6017,-0.6017,-0.6017,-0.6017,-0.6017,-0.5571,-0.5591,-0.5626,-0.5659,-0.5685,-0.5712,-0.5734,-0.576,-0.579,-0.583,-0.5845,-0.5881,-0.5915,-0.5967,-0.5989,-0.6017,-0.6019,-0.6026,-0.6028,-0.6029,-0.6028,-0.5999,-0.6024,-0.6024,-0.6024,-0.6024,-0.6024,0,-0.5589,-0.5612,-0.5643,-0.5684,-0.5709,-0.572,-0.5754,-0.5774,-0.5806,-0.5836,-0.5865,-0.5905,-0.5939,-0.5972,-0.6007,-0.6023,-0.6031,-0.6032,-0.6031,-0.6036,-0.6024,-0.6016,-0.6025,-0.6025,-0.6025,-0.6025,-0.6025,-0.6025,-0.5602,-0.5636,-0.5653,-0.57,-0.5724,-0.5759,-0.5777,-0.5802,-0.5826,-0.587,-0.5898,-0.5918,-0.595,-0.5987,-0.6019,-0.6027,-0.6039,-0.6038,-0.6049,-0.6037,-0.6037,-0.6036,-0.6029,-0.6041,-0.6041,-0.6058,-0.6058,-0.6059]},{"header":{"parameterUnit":"m.s-1","parameterCategory":1,"la1":30.2991,"la2":30.254,"lo1":-89.0895,"lo2":-89.0444,"dy":0.0017,"dx":0.0017,"nx":28,"ny":28,"refTime":"2024-10-14T09:00:00:Z","depth":0,"parameterNumber":3,"parameterNumberName":"V-component_of_WINDS"},"data":[0,0,0,0,0,0,0,0,0,0,0,0,0,0,0,0,0,0,0,0,0,0,0,0,0,0,0,0,0,0,0,0,0,0,0,0,0,0,0,0,0,0,0,0,0,0,0,0,0,0,0,0,0,0,0,0,0,0,-3.0355,-3.0356,0,-3.0392,-3.0393,-3.0393,-3.0361,-3.0359,-3.0358,-3.0357,-3.039,-3.0392,-3.0395,0,0,0,0,0,0,0,0,0,0,0,0,0,-3.0253,-3.0255,-3.0355,-3.0356,-3.0356,-3.0392,-3.0393,-3.0393,-3.0361,-3.0359,-3.0358,-3.0356,-3.039,-3.0392,-3.0395,0,0,0,0,0,0,0,0,0,0,0,0,0,-3.0294,-3.0256,-3.0355,-3.0345,-3.0344,-3.0392,-3.0393,-3.0394,-3.0361,-3.0359,-3.0357,-3.0355,-3.0389,-3.0392,-3.0395,-3.0455,0,0,-3.0405,-3.0406,0,0,0,0,0,0,0,0,-3.0292,-3.0298,-3.0346,-3.0345,-3.0345,-3.037,-3.0369,-3.0414,-3.0362,-3.0354,-3.0357,-3.0354,-3.0385,-3.0388,-3.0399,-3.0456,-3.0458,-3.0405,-3.0407,-3.0408,-3.0409,0,0,0,0,0,0,0,-3.0289,-3.0296,-3.037,-3.0346,-3.0346,-3.0337,-3.034,-3.0377,-3.038,-3.0355,-3.0353,-3.0358,-3.0384,-3.0396,-3.04,-3.0458,-3.0405,-3.0408,-3.041,-3.0411,-3.0566,-3.0568,0,0,0,0,0,0,-3.0288,-3.0294,-3.0369,-3.0371,-3.0313,-3.034,-3.0344,-3.0364,-3.038,-3.038,-3.0359,-3.0356,-3.0392,-3.0396,-3.0401,-3.0471,-3.0408,-3.0411,-3.0413,-3.0564,-3.0566,-3.0569,0,0,0,0,0,0,-3.0286,-3.0295,-3.0367,-3.0332,-3.0341,-3.0344,-3.0366,-3.0366,-3.0378,-3.0383,-3.0383,-3.0372,-3.0391,-3.0397,-3.0442,-3.0472,-3.0413,-3.0416,-3.0561,-3.0564,-3.0567,-3.0613,0,0,0,0,0,0,-3.0283,-3.0295,-3.0318,-3.0333,-3.0343,-3.0408,-3.0368,-3.0368,-3.0384,-3.038,-3.0395,-3.0395,-3.0389,-3.0437,-3.0445,-3.0475,-3.0418,-3.0558,-3.0562,-3.0566,-3.0609,-3.0617,-3.0625,0,0,0,0,0,-3.028,-3.0328,-3.0319,-3.0328,-3.0372,-3.041,-3.0416,-3.0409,-3.0387,-3.0409,-3.0413,-3.0395,-3.0468,-3.0442,-3.0451,-3.0482,-3.0556,-3.0561,-3.0566,-3.0605,-3.0616,-3.0625,0,0,0,0,0,0,-3.0314,-3.033,-3.032,-3.0375,-3.0392,-3.0405,-3.0433,-3.0421,-3.0443,-3.0438,-3.0428,-3.0432,-3.048,-3.0486,-3.0457,-3.0541,-3.0508,-3.0515,-3.0535,-3.0545,-3.0553,-3.055,-3.0421,0,0,0,0,0,-3.0329,-3.036,-3.0371,-3.0419,-3.0428,-3.043,-3.0446,-3.044,-3.0456,-3.0463,-3.0469,-3.0485,-3.0511,-3.0529,-3.0554,-3.061,-3.0612,-3.0636,-3.0644,-3.0651,-3.0656,-3.0686,-3.0697,-3.0585,-3.0585,-3.0585,0,0,-3.0358,-3.0371,-3.039,-3.0426,-3.0438,-3.047,-3.0435,-3.047,-3.0492,-3.0467,-3.0511,-3.0517,-3.0533,-3.0584,-3.0607,-3.0591,-3.0688,-3.0657,-3.0663,-3.0664,-3.0693,-3.0703,-3.0713,-3.0588,-3.0587,-3.0587,0,0,-3.0427,-3.0441,-3.0481,-3.0495,-3.0515,-3.0516,-3.0526,-3.0541,-3.0545,-3.0589,-3.0571,-3.0597,-3.0643,-3.0656,-3.0668,-3.0745,-3.0728,-3.0753,-3.0794,-3.0823,-3.0832,-3.084,-3.0866,-3.0876,-3.0759,-3.0759,-3.0759,0,-3.0461,-3.0508,-3.0504,-3.054,-3.0556,-3.0537,-3.0578,-3.0591,-3.0617,-3.0628,-3.061,-3.0668,-3.0678,-3.0731,-3.075,-3.0762,-3.0772,-3.075,-3.0832,-3.0839,-3.0846,-3.0871,-3.0881,-3.0762,-3.0761,-3.0761,-3.0761,0,-3.0548,-3.0581,-3.0612,-3.064,-3.0659,-3.0698,-3.0698,-3.0718,-3.0711,-3.0714,-3.0759,-3.077,-3.0797,-3.081,-3.0803,-3.0863,-3.0852,-3.0833,-3.08,-3.086,-3.0883,-3.0893,-3.0766,-3.0765,-3.0764,-3.0763,0,0,-3.0637,-3.0664,-3.0675,-3.0688,-3.0709,-3.0734,-3.0772,-3.08,-3.0817,-3.0836,-3.0866,-3.0907,-3.089,-3.0904,-3.0899,-3.0925,-3.0984,-3.0903,-3.0903,-3.0916,-3.105,-3.1062,-3.1074,-3.0974,-3.0976,-3.0977,-3.1048,0,-3.0706,-3.0773,-3.0771,-3.0832,-3.0862,-3.0846,-3.0879,-3.0895,-3.0899,-3.0924,-3.0928,-3.0957,-3.0933,-3.0941,-3.0967,-3.0971,-3.101,-3.0966,-3.1,-3.1002,-3.0995,-3.1086,-3.1099,-3.1165,-3.1057,-3.1058,-3.106,0,-3.0795,-3.0819,-3.0885,-3.0902,-3.0915,-3.0944,-3.097,-3.0995,-3.1013,-3.1015,-3.1032,-3.1022,-3.1059,-3.1027,-3.1077,-3.1047,-3.1062,-3.1066,-3.1068,-3.107,-3.1033,-3.1088,-3.1186,-3.1196,-3.1074,-3.1073,-3.1072,0,-3.0852,-3.0901,-3.0947,-3.0958,-3.098,-3.1001,-3.1011,-3.1028,-3.1045,-3.1067,-3.1078,-3.1104,-3.1118,-3.1138,-3.1136,-3.1112,-3.1187,-3.1154,-3.1187,-3.1187,-3.1202,-3.12,-3.1302,-3.1214,-3.1214,-3.1214,-3.1213,0,-3.0928,-3.0968,-3.0973,-3.1,-3.1045,-3.1042,-3.1086,-3.1093,-3.1108,-3.1136,-3.1124,-3.115,-3.1146,-3.1173,-3.1171,-3.1212,-3.1219,-3.122,-3.1219,-3.122,-3.122,-3.1228,-3.1222,-3.1216,-3.1216,-3.1215,-3.1215,0,-3.0999,-3.1003,-3.1052,-3.107,-3.1075,-3.1107,-3.1122,-3.1148,-3.1152,-3.1187,-3.1196,-3.1201,-3.1232,-3.1232,-3.1266,-3.1265,-3.1316,-3.131,-3.131,-3.1308,-3.1341,-3.1337,-3.1449,-3.1463,-3.1368,-3.1369,-3.137,0,-3.1046,-3.1077,-3.1099,-3.1118,-3.113,-3.116,-3.1178,-3.1177,-3.1196,-3.122,-3.1243,-3.1272,-3.1296,-3.1345,-3.1351,-3.1378,-3.1371,-3.1409,-3.1375,-3.1376,-3.137,-3.1368,-3.137,-3.1415,-3.1416,-3.1417,-3.1418,0,-3.1129,-3.113,-3.1158,-3.1187,-3.1209,-3.1231,-3.1252,-3.1268,-3.1269,-3.1291,-3.1323,-3.1341,-3.1378,-3.1407,-3.1433,-3.1441,-3.1429,-3.1429,-3.1438,-3.1438,-3.1436,-3.1436,-3.1326,-3.1425,-3.1425,-3.1424,-3.1424,-3.1423,-3.1188,-3.1215,-3.1235,-3.1266,-3.1282,-3.1302,-3.1327,-3.1336,-3.1363,-3.1393,-3.1391,-3.1426,-3.1444,-3.1477,-3.1489,-3.1516,-3.1502,-3.1515,-3.1518,-3.1521,-3.1524,-3.1434,-3.1521,-3.152,-3.152,-3.152,-3.152,0,-3.1269,-3.1282,-3.1311,-3.1341,-3.1366,-3.1355,-3.1378,-3.1398,-3.143,-3.1449,-3.1473,-3.1509,-3.1538,-3.1548,-3.1576,-3.1595,-3.159,-3.1602,-3.16,-3.1602,-3.1535,-3.1524,-3.1606,-3.1606,-3.1606,-3.1606,-3.1606,-3.1606,-3.1314,-3.1359,-3.1363,-3.1415,-3.1427,-3.1463,-3.1477,-3.1495,-3.1509,-3.1552,-3.1576,-3.1583,-3.1598,-3.1627,-3.1653,-3.1655,-3.1665,-3.1679,-3.1678,-3.1615,-3.1607,-3.1598,-3.1588,-3.1681,-3.1682,-3.1743,-3.1743,-3.1744]}]]